Wind_Speed
13 8 2 5 5 6 4 4 5 4 7 23 26 29 17 18 6 6 12 20 25 27 27 26 26 27 26 24 24 24 23 21 23 24 23 22 23 24 24 25 25 23 21 24 16 16 18 17 25
8 4 1 4 5 5 2 4 9 6 21 27 21 18 15 6 13 4 20 22 23 22 23 25 24 24 24 24 24 25 24 23 22 23 24 24 23 23 22 23 24 23 22 22 22 20 19 21 23
6 3 5 4 4 4 5 6 6 9 9 6 9 16 7 7 11 9 15 18 19 22 24 25 26 26 26 25 23 25 25 26 24 22 25 26 26 26 24 23 24 25 22 21 21 22 21 20 22
1 2 8 6 9 5 7 8 17 13 18 13 19 13 10 6 4 9 12 15 18 21 24 26 25 24 24 25 24 24 25 26 25 21 21 24 26 27 26 24 23 23 22 22 21 19 21 22 21
4 4 5 5 6 4 5 14 20 9 10 14 8 7 7 9 5 7 12 15 20 23 25 25 26 25 24 28 27 24 22 26 24 24 22 22 23 27 27 25 23 21 22 23 25 22 21 20 20
3 7 5 4 4 3 5 21 26 24 22 13 17 11 6 4 7 9 11 16 19 22 24 25 26 25 24 26 26 22 24 24 27 28 25 25 24 26 29 27 25 23 22 23 24 25 24 22 20
2 5 5 7 7 3 3 16 9 15 11 12 11 6 8 9 7 6 11 15 18 22 24 25 27 28 28 30 27 24 27 27 28 29 29 26 27 28 29 28 27 26 24 23 24 25 26 24 20
4 6 7 5 8 5 3 7 16 12 5 2 8 4 4 7 3 5 9 14 18 21 24 26 27 28 29 31 31 32 31 30 29 29 28 29 26 26 28 30 28 28 26 24 25 25 25 23 19
3 5 4 7 8 6 16 6 11 11 14 11 11 14 11 5 5 6 9 13 17 22 24 26 27 28 30 30 31 32 33 34 35 35 34 31 31 30 27 26 28 26 26 24 24 25 24 21 19
7 5 2 2 10 10 14 14 14 9 16 16 18 12 7 7 7 8 11 15 20 23 25 26 26 27 28 29 29 30 33 35 37 38 38 36 33 31 31 28 26 26 26 25 22 23 22 19 18
4 4 3 9 24 26 21 13 10 24 5 7 14 12 7 7 7 9 11 16 20 20 21 23 24 24 26 28 30 32 33 34 36 37 38 38 38 37 34 31 29 26 26 28 24 20 20 19 19
7 12 10 12 25 24 7 9 9 5 10 13 12 10 7 7 7 9 11 14 16 18 19 20 22 22 23 24 27 30 32 35 37 37 37 39 39 38 38 36 32 28 24 26 25 21 19 15 15
9 5 14 16 20 18 17 12 10 14 14 12 11 9 8 6 5 6 9 12 14 16 17 19 19 20 20 22 24 26 29 31 33 35 36 36 37 38 39 39 37 30 26 23 25 22 19 15 11
14 19 13 15 15 14 13 11 3 10 12 11 9 9 7 5 4 5 7 10 13 14 15 17 17 18 19 21 23 26 28 29 31 32 32 33 34 36 37 38 37 33 31 27 20 22 20 16 12
23 9 8 11 7 5 19 2 3 17 14 13 9 8 7 5 2 3 7 9 12 13 14 16 17 17 18 20 21 22 23 26 30 31 31 32 33 33 35 36 36 33 29 27 21 17 19 17 13
5 5 4 5 7 11 3 4 6 16 17 16 12 11 8 5 1 2 5 8 10 10 13 15 16 17 18 20 21 22 22 23 26 28 30 31 31 32 33 35 35 34 30 28 24 18 17 17 15
1 3 4 2 9 5 5 3 9 16 20 18 17 14 10 7 4 3 4 7 8 9 12 14 17 17 18 20 22 22 21 21 25 26 27 28 30 32 32 34 35 34 33 33 26 21 16 15 16
7 4 3 5 5 5 5 3 9 20 23 23 21 18 16 12 8 5 4 7 8 10 12 13 15 16 18 20 21 22 22 22 23 26 27 27 29 30 32 32 34 35 33 35 32 24 17 11 18
5 5 6 2 2 5 7 6 10 20 22 22 23 22 20 15 9 5 5 7 9 10 12 13 15 17 18 21 24 25 25 23 23 24 26 27 27 28 30 30 31 32 32 32 35 35 26 16 19
2 5 3 2 2 2 5 9 9 21 23 28 27 24 22 16 10 7 5 5 9 11 10 11 15 16 17 19 21 23 22 21 20 21 22 24 25 26 28 29 30 29 31 31 30 35 40 27 15
3 6 4 3 2 2 2 8 7 12 22 26 26 26 24 21 16 12 9 7 8 9 8 10 13 14 16 18 20 21 20 21 23 24 24 24 24 24 25 27 28 29 28 30 28 29 34 37 23
4 3 6 8 5 3 4 5 5 11 15 19 26 28 27 23 19 15 12 9 7 5 6 9 11 13 14 17 19 21 23 24 23 23 23 23 24 25 24 25 26 28 28 27 27 25 28 32 37
3 2 6 4 2 3 2 2 7 6 11 17 22 26 27 24 21 19 13 9 6 5 6 8 10 12 13 16 20 20 20 20 19 20 21 22 23 25 26 25 25 26 28 27 27 24 24 25 32
6 6 8 5 2 2 4 6 6 6 11 8 19 35 29 25 23 20 13 10 8 5 6 7 9 11 13 16 19 19 20 20 21 21 22 23 24 24 25 26 24 24 26 27 27 26 23 23 26
3 5 3 3 3 6 3 4 9 7 8 13 24 33 34 32 28 22 17 14 9 6 6 6 9 10 12 16 18 18 19 19 20 21 23 24 23 24 25 25 26 24 24 25 25 26 26 25 25
6 5 5 7 3 4 4 6 7 5 16 16 26 34 36 34 28 24 19 16 11 8 6 6 8 10 13 16 17 17 18 19 20 21 22 22 22 22 22 22 23 23 23 23 24 25 26 23 23
5 4 4 6 2 3 4 7 10 4 2 8 24 33 40 35 31 26 22 17 13 9 6 7 8 10 14 15 17 18 19 20 21 22 22 23 22 21 20 19 20 22 22 22 23 24 25 26 21
2 4 3 3 2 4 4 4 7 7 9 7 15 30 39 36 32 28 24 19 15 11 8 8 8 11 14 15 17 20 20 21 22 23 23 24 23 21 20 18 18 18 20 22 21 22 25 26 26
2 2 1 2 4 5 2 6 7 11 13 16 22 33 43 40 35 30 25 21 16 13 10 9 9 11 13 15 17 18 18 18 21 22 24 24 23 21 19 18 16 16 17 20 21 20 22 25 26
4 6 6 4 5 3 3 7 3 2 9 21 24 33 39 38 34 29 26 23 18 14 12 10 9 11 13 15 16 15 16 18 21 23 24 24 24 22 18 16 14 14 14 15 18 20 20 23 26
Wind_Direction
136 148 164 73 59 64 40 52 105 64 74 84 82 87 96 53 54 128 328 336 339 346 351 355 0 1 2 3 3 2 356 357 353 355 349 347 348 345 343 342 340 348 347 334 314 304 289 289 265
139 145 9 75 93 86 29 88 79 93 122 107 88 92 57 65 49 23 353 341 349 359 5 8 8 7 8 12 9 5 5 2 2 354 347 346 344 344 345 338 333 336 336 336 327 310 303 290 272
137 49 34 77 93 136 138 128 123 100 89 157 111 74 64 354 11 356 340 343 6 19 20 21 20 15 15 15 13 7 6 3 359 359 353 349 347 348 344 339 337 337 329 329 330 323 320 295 289
90 82 71 74 89 12 113 156 127 97 69 90 104 81 90 40 26 339 344 11 26 30 28 28 27 22 22 19 19 13 12 11 5 358 354 349 344 342 349 341 341 336 335 330 328 329 319 306 303
15 71 61 82 68 80 56 117 122 109 94 117 108 99 93 29 29 6 21 30 32 33 29 27 25 27 26 17 21 13 10 4 4 357 348 348 347 341 339 347 341 339 336 332 330 321 312 303 309
12 91 85 97 93 63 58 106 96 92 98 81 99 101 75 33 41 29 36 43 36 31 26 25 26 24 20 20 14 9 9 3 357 353 353 351 352 344 341 344 345 344 336 328 326 329 320 306 302
93 83 134 130 131 77 87 81 88 83 77 29 158 100 106 62 48 40 52 48 39 32 27 23 21 22 19 16 8 11 12 9 3 359 355 352 353 351 350 349 347 349 341 336 328 326 322 315 307
68 85 123 145 159 183 136 90 85 78 66 62 117 132 110 73 59 70 66 52 39 32 27 23 23 24 21 16 12 14 16 13 9 5 1 357 348 346 351 352 347 347 343 341 339 333 327 319 315
38 79 148 171 146 159 123 99 68 88 101 80 88 102 118 129 102 88 63 48 34 30 28 27 27 27 22 18 17 16 15 14 11 9 6 357 355 356 350 344 342 340 342 340 341 340 336 336 326
63 92 89 201 149 144 127 128 128 99 96 97 99 107 122 122 93 66 45 35 30 28 28 28 27 25 24 20 20 19 19 17 14 10 9 8 1 351 349 345 345 343 334 336 338 338 337 337 337
57 116 130 60 130 131 134 100 124 121 60 138 136 127 122 112 89 66 45 33 30 28 30 29 27 25 26 21 25 21 20 15 11 7 4 4 6 3 355 347 348 352 335 331 338 336 340 344 340
95 70 90 103 119 124 96 106 77 80 133 140 139 139 127 103 73 51 41 32 28 29 31 31 29 23 27 24 22 18 15 9 7 6 5 4 5 4 3 358 347 345 352 338 335 338 338 343 334
72 80 74 116 115 100 116 102 119 115 137 144 143 141 127 110 83 57 42 30 24 28 29 28 25 25 24 21 16 12 9 6 1 0 1 1 1 2 2 360 357 345 341 346 341 334 334 337 328
114 99 94 100 101 122 113 133 82 158 152 149 158 146 142 136 98 65 41 28 22 22 24 23 22 20 17 15 12 8 8 6 3 0 360 359 358 358 358 359 357 357 349 341 344 332 329 334 327
106 77 47 116 117 126 123 121 132 164 168 159 166 162 161 159 128 56 32 19 18 18 10 15 17 14 13 15 11 8 10 3 4 5 5 2 359 358 356 359 359 0 354 340 340 334 322 327 322
79 85 117 240 149 168 114 251 189 179 176 178 188 183 182 183 194 25 16 8 12 10 6 3 10 10 14 12 14 12 11 9 7 7 7 7 4 2 1 2 4 2 6 350 338 341 331 325 329
284 182 138 227 197 156 168 235 195 181 186 189 191 189 198 201 224 280 347 357 3 359 355 357 3 9 10 10 11 14 13 8 3 2 5 5 5 7 5 3 6 2 8 8 349 342 342 340 329
189 207 147 175 223 155 195 225 198 189 195 194 195 194 196 205 225 254 314 342 343 348 346 352 358 3 8 4 8 11 9 6 0 0 2 2 3 5 7 6 4 9 5 17 9 352 348 334 340
173 146 130 131 104 157 222 218 207 203 208 202 200 196 198 208 229 249 294 325 324 333 340 348 352 5 2 5 3 5 5 0 357 357 354 356 359 2 6 8 7 6 8 11 15 14 5 356 355
28 125 98 55 156 158 227 241 207 206 216 211 202 199 200 196 207 212 248 267 297 320 335 345 352 359 360 1 3 2 1 0 359 360 359 357 358 2 5 9 11 9 8 6 13 12 13 3 8
37 158 180 158 143 347 314 284 197 226 213 215 214 207 205 197 192 207 226 246 280 308 337 339 349 355 354 357 355 359 358 0 1 5 4 3 4 4 6 9 11 13 14 13 13 10 14 9 3
148 321 131 132 120 210 132 274 239 208 208 211 213 212 194 191 201 210 226 242 269 308 322 333 346 350 351 353 357 1 359 356 359 358 360 2 3 6 6 9 11 12 15 16 15 13 13 12 17
166 117 126 125 105 70 208 76 277 159 220 219 199 191 193 200 211 214 223 238 255 294 322 329 344 345 350 352 353 356 355 353 355 357 356 359 2 7 10 8 9 11 12 16 16 17 15 9 11
137 72 43 42 59 353 211 170 268 200 223 209 202 207 201 201 201 212 218 226 240 275 302 326 340 346 347 345 347 351 351 349 352 355 356 358 359 4 9 10 8 10 11 12 16 17 16 21 6
52 90 13 349 356 221 339 168 246 232 230 201 198 200 203 198 198 208 211 218 231 252 289 320 333 337 340 342 344 349 347 346 348 348 348 349 351 358 5 8 9 8 9 9 12 16 19 17 13
186 163 160 204 197 256 355 234 251 214 249 219 211 197 193 190 200 208 212 218 226 246 272 304 325 328 335 342 343 346 342 339 341 340 339 338 341 348 355 2 7 9 6 7 10 14 18 18 17
195 197 164 103 57 56 225 272 297 206 142 172 170 181 186 189 197 205 210 215 223 238 258 287 309 319 333 340 340 342 336 334 335 331 327 324 326 330 338 347 358 7 8 7 7 13 16 20 15
178 165 84 352 168 264 279 268 249 247 212 181 171 176 183 191 198 206 209 213 218 231 248 277 298 314 328 338 340 340 337 338 338 337 333 327 320 315 319 329 343 357 6 8 8 9 14 16 19
148 233 21 141 160 188 241 253 221 230 191 198 188 185 187 192 200 205 207 210 217 226 238 266 288 310 325 336 341 340 343 351 348 347 344 342 340 329 311 315 330 343 356 5 10 10 13 15 16
194 194 162 137 234 235 147 260 227 227 224 197 194 190 194 199 202 206 209 211 214 222 233 257 280 308 324 336 341 344 351 354 351 350 348 348 348 343 331 312 316 331 342 356 7 10 14 14 15
Height
1521 1522 1523 1523 1540 1553 1565 1569 1561 1563 1565 1570 1568 1568 1581 1585 1585 1597 1590 1585 1579 1574 1568 1563 1559 1554 1550 1547 1543 1539 1536 1534 1531 1529 1525 1522 1518 1515 1511 1508 1505 1501 1498 1497 1493 1491 1489 1489 1489
1523 1523 1523 1525 1555 1575 1576 1564 1566 1564 1567 1567 1571 1574 1578 1587 1587 1588 1586 1582 1578 1574 1568 1563 1559 1555 1551 1547 1544 1540 1537 1534 1531 1528 1525 1522 1519 1515 1511 1507 1504 1500 1498 1495 1491 1488 1485 1485 1484
1523 1524 1525 1533 1557 1570 1572 1563 1564 1565 1566 1565 1572 1576 1583 1590 1590 1589 1587 1582 1578 1573 1568 1563 1558 1554 1551 1547 1545 1541 1537 1535 1530 1527 1524 1521 1517 1513 1509 1505 1502 1498 1496 1493 1489 1487 1482 1481 1481
1524 1526 1531 1552 1561 1558 1559 1559 1560 1563 1565 1567 1571 1582 1588 1591 1590 1589 1585 1582 1578 1573 1568 1563 1559 1555 1551 1547 1543 1541 1538 1535 1530 1527 1523 1519 1515 1512 1508 1504 1501 1498 1493 1490 1486 1483 1479 1478 1477
1525 1528 1548 1563 1561 1558 1556 1558 1560 1563 1568 1570 1570 1585 1589 1590 1589 1587 1584 1581 1577 1572 1568 1563 1559 1555 1551 1546 1543 1539 1535 1532 1529 1526 1522 1518 1515 1511 1507 1502 1499 1496 1491 1486 1484 1481 1479 1474 1472
1525 1530 1562 1572 1565 1559 1558 1559 1560 1565 1571 1573 1576 1581 1591 1590 1588 1586 1584 1580 1577 1572 1568 1564 1560 1556 1552 1548 1544 1540 1536 1532 1528 1524 1520 1517 1514 1509 1504 1499 1496 1492 1489 1485 1482 1478 1474 1469 1466
1526 1537 1558 1565 1566 1563 1560 1560 1563 1567 1571 1574 1576 1582 1589 1589 1588 1586 1584 1581 1577 1573 1569 1565 1560 1555 1551 1548 1544 1540 1536 1532 1528 1523 1518 1515 1512 1508 1504 1500 1494 1490 1487 1483 1479 1474 1469 1464 1461
1525 1535 1554 1557 1564 1565 1560 1562 1567 1567 1573 1576 1576 1581 1587 1588 1587 1585 1583 1580 1577 1573 1569 1564 1560 1556 1552 1548 1544 1539 1536 1533 1528 1524 1519 1515 1511 1506 1502 1498 1494 1489 1485 1480 1475 1471 1465 1461 1456
1525 1543 1556 1555 1559 1560 1559 1563 1569 1572 1572 1576 1580 1582 1586 1586 1586 1585 1582 1579 1576 1572 1568 1565 1560 1556 1552 1548 1543 1540 1536 1532 1527 1523 1519 1513 1508 1504 1499 1497 1493 1489 1484 1479 1473 1469 1464 1459 1455
1526 1545 1545 1544 1548 1556 1559 1562 1569 1576 1577 1582 1582 1584 1584 1584 1583 1582 1580 1577 1574 1571 1568 1565 1561 1557 1553 1549 1545 1540 1537 1532 1527 1523 1519 1514 1508 1504 1499 1494 1491 1487 1483 1479 1473 1469 1463 1459 1455
1532 1546 1545 1546 1546 1551 1561 1566 1570 1573 1580 1579 1580 1582 1583 1583 1582 1580 1578 1576 1574 1571 1569 1565 1562 1558 1554 1551 1546 1542 1537 1533 1529 1524 1518 1514 1507 1501 1496 1492 1488 1485 1481 1476 1471 1467 1462 1458 1455
1541 1546 1545 1551 1551 1553 1560 1566 1570 1571 1574 1578 1580 1582 1583 1583 1581 1580 1579 1577 1575 1572 1569 1566 1563 1559 1555 1552 1548 1543 1537 1533 1528 1525 1520 1512 1508 1503 1497 1492 1486 1482 1477 1474 1469 1464 1461 1457 1455
1545 1548 1550 1553 1554 1558 1560 1567 1569 1575 1577 1579 1581 1582 1581 1580 1580 1579 1578 1577 1575 1572 1569 1566 1563 1560 1557 1552 1549 1544 1539 1534 1531 1525 1520 1515 1509 1504 1498 1492 1486 1481 1476 1471 1468 1463 1459 1455 1454
1548 1550 1555 1557 1558 1561 1564 1570 1570 1577 1577 1578 1579 1579 1579 1579 1579 1579 1577 1575 1573 1570 1568 1566 1563 1560 1557 1553 1549 1544 1539 1534 1531 1527 1523 1518 1512 1505 1501 1494 1487 1482 1475 1471 1467 1462 1459 1455 1452
1550 1557 1559 1562 1561 1565 1565 1573 1573 1574 1576 1578 1578 1578 1578 1578 1578 1577 1575 1574 1572 1570 1567 1564 1561 1559 1556 1553 1549 1545 1540 1535 1531 1527 1523 1518 1512 1507 1500 1495 1487 1480 1475 1472 1465 1461 1458 1453 1450
1556 1559 1570 1563 1563 1565 1567 1571 1571 1572 1574 1575 1575 1576 1577 1578 1577 1576 1574 1573 1572 1569 1566 1564 1562 1558 1555 1552 1549 1545 1541 1537 1534 1529 1523 1518 1513 1508 1501 1495 1488 1483 1475 1470 1464 1460 1456 1452 1450
1558 1565 1565 1566 1562 1564 1567 1569 1567 1568 1570 1572 1573 1573 1575 1575 1574 1574 1573 1573 1571 1569 1565 1562 1560 1557 1554 1552 1548 1544 1539 1535 1532 1529 1524 1519 1514 1508 1502 1495 1488 1481 1475 1469 1464 1459 1454 1450 1447
1562 1561 1561 1564 1561 1564 1566 1565 1565 1565 1565 1565 1567 1568 1568 1569 1571 1572 1571 1571 1569 1568 1564 1561 1558 1556 1553 1551 1547 1542 1538 1535 1532 1528 1524 1519 1513 1508 1502 1496 1488 1481 1477 1471 1464 1459 1453 1449 1446
1546 1549 1556 1559 1558 1561 1564 1563 1562 1561 1562 1562 1564 1565 1566 1567 1569 1570 1569 1568 1567 1566 1563 1560 1556 1554 1551 1548 1544 1540 1537 1535 1532 1529 1524 1519 1514 1508 1502 1496 1489 1483 1479 1473 1467 1460 1451 1449 1445
1541 1552 1560 1560 1557 1559 1557 1556 1557 1554 1552 1553 1557 1560 1563 1565 1566 1567 1567 1566 1565 1564 1561 1559 1556 1554 1551 1548 1544 1540 1538 1536 1532 1528 1525 1519 1515 1509 1503 1497 1491 1484 1478 1473 1465 1461 1453 1449 1445
1550 1552 1558 1555 1559 1558 1558 1557 1550 1546 1547 1550 1552 1555 1558 1560 1561 1563 1564 1564 1563 1562 1560 1557 1555 1553 1550 1548 1544 1541 1539 1536 1531 1526 1522 1519 1515 1509 1503 1497 1491 1486 1479 1473 1467 1462 1458 1454 1447
1548 1548 1552 1558 1562 1571 1562 1573 1545 1540 1541 1542 1544 1549 1553 1554 1557 1559 1559 1559 1560 1559 1557 1555 1553 1551 1549 1547 1543 1538 1536 1533 1530 1526 1522 1519 1514 1509 1503 1497 1492 1487 1481 1475 1471 1466 1463 1459 1451
1548 1549 1553 1559 1561 1563 1564 1579 1538 1538 1542 1537 1539 1542 1546 1549 1552 1555 1557 1557 1557 1557 1556 1553 1552 1550 1548 1546 1541 1537 1535 1534 1530 1526 1523 1519 1515 1509 1503 1498 1493 1488 1483 1478 1473 1468 1464 1460 1457
1547 1553 1558 1566 1570 1597 1560 1566 1545 1542 1524 1525 1531 1533 1538 1543 1547 1550 1554 1554 1555 1555 1553 1551 1549 1548 1548 1544 1540 1537 1535 1532 1528 1523 1521 1517 1514 1509 1503 1498 1493 1489 1483 1478 1473 1470 1465 1461 1458
1550 1559 1602 1594 1607 1582 1560 1564 1532 1516 1516 1514 1518 1524 1531 1536 1541 1546 1549 1550 1551 1550 1550 1549 1547 1547 1544 1542 1538 1535 1533 1531 1526 1522 1518 1515 1512 1508 1503 1499 1494 1489 1485 1480 1474 1470 1464 1460 1457
1552 1554 1573 1578 1582 1567 1561 1560 1521 1510 1508 1510 1513 1519 1527 1533 1537 1540 1544 1546 1548 1548 1546 1546 1544 1544 1542 1539 1536 1533 1532 1530 1525 1521 1518 1514 1510 1506 1503 1499 1495 1490 1485 1480 1476 1471 1466 1462 1458
1549 1558 1551 1581 1605 1586 1550 1537 1514 1510 1509 1510 1512 1517 1522 1528 1531 1535 1539 1542 1544 1545 1544 1542 1541 1540 1539 1536 1534 1532 1529 1527 1523 1519 1515 1511 1508 1504 1501 1498 1494 1489 1485 1480 1476 1471 1467 1463 1458
1545 1545 1560 1577 1574 1585 1552 1531 1514 1511 1511 1509 1511 1511 1516 1522 1527 1530 1534 1537 1540 1540 1541 1540 1539 1538 1537 1534 1532 1530 1526 1522 1520 1515 1511 1507 1504 1501 1498 1495 1492 1489 1485 1480 1476 1472 1467 1463 1458
1549 1552 1553 1550 1553 1562 1567 1535 1500 1494 1498 1500 1502 1504 1507 1512 1518 1525 1528 1531 1533 1535 1536 1537 1537 1536 1535 1533 1530 1528 1525 1521 1518 1513 1509 1504 1499 1496 1493 1491 1489 1487 1484 1480 1477 1473 1469 1464 1459
1536 1536 1540 1557 1550 1555 1558 1530 1492 1491 1492 1495 1498 1500 1505 1510 1514 1519 1524 1526 1529 1531 1532 1533 1533 1534 1532 1531 1527 1526 1523 1519 1516 1511 1506 1501 1497 1493 1490 1487 1485 1484 1482 1480 1476 1473 1470 1466 1461